Year,Month,Day,Hour,Minute,Value (Times are PST for temperature in C)
2010,03,19,00,00,2.80
2010,03,19,00,01,2.80
2010,03,19,00,02,2.80
2010,03,19,00,03,2.80
2010,03,19,00,04,2.70
2010,03,19,00,05,2.70
2010,03,19,00,06,2.70
2010,03,19,00,07,2.70
2010,03,19,00,08,2.70
2010,03,19,00,09,2.70
2010,03,19,00,10,2.70
2010,03,19,00,11,2.70
2010,03,19,00,12,2.70
2010,03,19,00,13,2.70
2010,03,19,00,14,2.70
2010,03,19,00,15,2.70
2010,03,19,00,16,2.70
2010,03,19,00,17,2.70
2010,03,19,00,18,2.70
2010,03,19,00,19,2.70
2010,03,19,00,20,2.60
2010,03,19,00,21,2.60
2010,03,19,00,22,2.60
2010,03,19,00,23,2.60
2010,03,19,00,24,2.60
2010,03,19,00,25,2.60
2010,03,19,00,26,2.50
2010,03,19,00,27,2.50
2010,03,19,00,28,2.50
2010,03,19,00,29,2.50
2010,03,19,00,30,2.50
2010,03,19,00,31,2.50
2010,03,19,00,32,2.50
2010,03,19,00,33,2.50
2010,03,19,00,34,2.50
2010,03,19,00,35,2.50
2010,03,19,00,36,2.50
2010,03,19,00,37,2.50
2010,03,19,00,38,2.50
2010,03,19,00,39,2.50
2010,03,19,00,40,2.50
2010,03,19,00,41,2.50
2010,03,19,00,42,2.50
2010,03,19,00,43,2.50
2010,03,19,00,44,2.50
2010,03,19,00,45,2.50
2010,03,19,00,46,2.50
2010,03,19,00,47,2.50
2010,03,19,00,48,2.50
2010,03,19,00,49,2.50
2010,03,19,00,50,2.50
2010,03,19,00,51,2.50
2010,03,19,00,52,2.60
2010,03,19,00,53,2.60
2010,03,19,00,54,2.60
2010,03,19,00,55,2.60
2010,03,19,00,56,2.60
2010,03,19,00,57,2.70
2010,03,19,00,58,2.70
2010,03,19,00,59,2.70
2010,03,19,01,00,2.60
2010,03,19,01,01,2.60
2010,03,19,01,02,2.60
2010,03,19,01,03,2.60
2010,03,19,01,04,2.60
2010,03,19,01,05,2.60
2010,03,19,01,06,2.60
2010,03,19,01,07,2.60
2010,03,19,01,08,2.60
2010,03,19,01,09,2.60
2010,03,19,01,10,2.60
2010,03,19,01,11,2.60
2010,03,19,01,12,2.60
2010,03,19,01,13,2.60
2010,03,19,01,14,2.60
2010,03,19,01,15,2.60
2010,03,19,01,16,2.50
2010,03,19,01,17,2.50
2010,03,19,01,18,2.50
2010,03,19,01,19,2.50
2010,03,19,01,20,2.50
2010,03,19,01,21,2.50
2010,03,19,01,22,2.50
2010,03,19,01,23,2.40
2010,03,19,01,24,2.40
2010,03,19,01,25,2.40
2010,03,19,01,26,2.40
2010,03,19,01,27,2.40
2010,03,19,01,28,2.40
2010,03,19,01,29,2.40
2010,03,19,01,30,2.40
2010,03,19,01,31,2.30
2010,03,19,01,32,2.30
2010,03,19,01,33,2.30
2010,03,19,01,34,2.30
2010,03,19,01,35,2.30
2010,03,19,01,36,2.30
2010,03,19,01,37,2.30
2010,03,19,01,38,2.30
2010,03,19,01,39,2.30
2010,03,19,01,40,2.30
2010,03,19,01,41,2.30
2010,03,19,01,42,2.30
2010,03,19,01,43,2.30
2010,03,19,01,44,2.30
2010,03,19,01,45,2.30
2010,03,19,01,46,2.30
2010,03,19,01,47,2.40
2010,03,19,01,48,2.40
2010,03,19,01,49,2.40
2010,03,19,01,50,2.40
2010,03,19,01,51,2.40
2010,03,19,01,52,2.40
2010,03,19,01,53,2.40
2010,03,19,01,54,2.40
2010,03,19,01,55,2.40
2010,03,19,01,56,2.40
2010,03,19,01,57,2.40
2010,03,19,01,58,2.40
2010,03,19,01,59,2.30
2010,03,19,02,00,2.30
2010,03,19,02,01,2.30
2010,03,19,02,02,2.30
2010,03,19,02,03,2.40
2010,03,19,02,04,2.40
2010,03,19,02,05,2.40
2010,03,19,02,06,2.40
2010,03,19,02,07,2.40
2010,03,19,02,08,2.40
2010,03,19,02,09,2.40
2010,03,19,02,10,2.40
2010,03,19,02,11,2.40
2010,03,19,02,12,2.40
2010,03,19,02,13,2.40
2010,03,19,02,14,2.40
2010,03,19,02,15,2.30
2010,03,19,02,16,2.30
2010,03,19,02,17,2.20
2010,03,19,02,18,2.20
2010,03,19,02,19,2.20
2010,03,19,02,20,2.20
2010,03,19,02,21,2.20
2010,03,19,02,22,2.20
2010,03,19,02,23,2.20
2010,03,19,02,24,2.20
2010,03,19,02,25,2.20
2010,03,19,02,26,2.30
2010,03,19,02,27,2.30
2010,03,19,02,28,2.30
2010,03,19,02,29,2.30
2010,03,19,02,30,2.40
2010,03,19,02,31,2.40
2010,03,19,02,32,2.50
2010,03,19,02,33,2.50
2010,03,19,02,34,2.60
2010,03,19,02,35,2.70
2010,03,19,02,36,2.70
2010,03,19,02,37,2.70
2010,03,19,02,38,2.80
2010,03,19,02,39,2.80
2010,03,19,02,40,2.80
2010,03,19,02,41,2.80
2010,03,19,02,42,2.90
2010,03,19,02,43,2.90
2010,03,19,02,44,2.90
2010,03,19,02,45,3.00
2010,03,19,02,46,3.10
2010,03,19,02,47,3.10
2010,03,19,02,48,3.10
2010,03,19,02,49,3.20
2010,03,19,02,50,3.30
2010,03,19,02,51,3.30
2010,03,19,02,52,3.30
2010,03,19,02,53,3.30
2010,03,19,02,54,3.40
2010,03,19,02,55,3.40
2010,03,19,02,56,3.40
2010,03,19,02,57,3.40
2010,03,19,02,58,3.40
2010,03,19,02,59,3.50
2010,03,19,03,00,3.60
2010,03,19,03,01,3.60
2010,03,19,03,02,3.70
2010,03,19,03,03,3.70
2010,03,19,03,04,3.80
2010,03,19,03,05,3.80
2010,03,19,03,06,3.90
2010,03,19,03,07,3.90
2010,03,19,03,08,4.00
2010,03,19,03,09,4.00
2010,03,19,03,10,4.00
2010,03,19,03,11,4.00
2010,03,19,03,12,4.10
2010,03,19,03,13,4.10
2010,03,19,03,14,4.10
2010,03,19,03,15,4.20
2010,03,19,03,16,4.20
2010,03,19,03,17,4.20
2010,03,19,03,18,4.20
2010,03,19,03,19,4.20
2010,03,19,03,20,4.30
2010,03,19,03,21,4.50
2010,03,19,03,22,4.50
2010,03,19,03,23,4.60
2010,03,19,03,24,4.60
2010,03,19,03,25,4.50
2010,03,19,03,26,4.50
2010,03,19,03,27,4.40
2010,03,19,03,28,4.40
2010,03,19,03,29,4.20
2010,03,19,03,30,4.20
2010,03,19,03,31,4.10
2010,03,19,03,32,4.00
2010,03,19,03,33,4.00
2010,03,19,03,34,3.90
2010,03,19,03,35,4.00
2010,03,19,03,36,4.00
2010,03,19,03,37,4.00
2010,03,19,03,38,3.90
2010,03,19,03,39,3.80
2010,03,19,03,40,3.80
2010,03,19,03,41,3.80
2010,03,19,03,42,3.80
2010,03,19,03,43,3.80
2010,03,19,03,44,3.80
2010,03,19,03,45,3.80
2010,03,19,03,46,3.80
2010,03,19,03,47,3.80
2010,03,19,03,48,4.00
2010,03,19,03,49,4.00
2010,03,19,03,50,4.20
2010,03,19,03,51,4.20
2010,03,19,03,52,4.20
2010,03,19,03,53,4.20
2010,03,19,03,54,4.10
2010,03,19,03,55,4.10
2010,03,19,03,56,4.00
2010,03,19,03,57,4.00
2010,03,19,03,58,3.90
2010,03,19,03,59,3.90
2010,03,19,04,00,3.80
2010,03,19,04,01,3.80
2010,03,19,04,02,3.80
2010,03,19,04,03,3.80
2010,03,19,04,04,3.90
2010,03,19,04,05,4.00
2010,03,19,04,06,4.00
2010,03,19,04,07,4.10
2010,03,19,04,08,4.10
2010,03,19,04,09,4.10
2010,03,19,04,10,4.00
2010,03,19,04,11,4.00
2010,03,19,04,12,3.90
2010,03,19,04,13,3.90
2010,03,19,04,14,3.80
2010,03,19,04,15,3.80
2010,03,19,04,16,3.80
2010,03,19,04,17,3.70
2010,03,19,04,18,3.60
2010,03,19,04,19,3.50
2010,03,19,04,20,3.50
2010,03,19,04,21,3.40
2010,03,19,04,22,3.30
2010,03,19,04,23,3.30
2010,03,19,04,24,3.30
2010,03,19,04,25,3.20
2010,03,19,04,26,3.10
2010,03,19,04,27,3.10
2010,03,19,04,28,3.10
2010,03,19,04,29,3.00
2010,03,19,04,30,2.90
2010,03,19,04,31,2.90
2010,03,19,04,32,2.90
2010,03,19,04,33,2.90
2010,03,19,04,34,2.80
2010,03,19,04,35,2.80
2010,03,19,04,36,2.80
2010,03,19,04,37,2.70
2010,03,19,04,38,2.70
2010,03,19,04,39,2.70
2010,03,19,04,40,2.70
2010,03,19,04,41,2.70
2010,03,19,04,42,2.70
2010,03,19,04,43,2.70
2010,03,19,04,44,2.70
2010,03,19,04,45,2.70
2010,03,19,04,46,2.70
2010,03,19,04,47,2.70
2010,03,19,04,48,2.70
2010,03,19,04,49,2.70
2010,03,19,04,50,2.70
2010,03,19,04,51,2.70
2010,03,19,04,52,2.60
2010,03,19,04,53,2.60
2010,03,19,04,54,2.60
2010,03,19,04,55,2.60
2010,03,19,04,56,2.60
2010,03,19,04,57,2.60
2010,03,19,04,58,2.60
2010,03,19,04,59,2.60
2010,03,19,05,00,2.50
2010,03,19,05,01,2.50
2010,03,19,05,02,2.40
2010,03,19,05,03,2.40
2010,03,19,05,04,2.30
2010,03,19,05,05,2.30
2010,03,19,05,06,2.20
2010,03,19,05,07,2.20
2010,03,19,05,08,2.20
2010,03,19,05,09,2.30
2010,03,19,05,10,2.30
2010,03,19,05,11,2.30
2010,03,19,05,12,2.30
2010,03,19,05,13,2.30
2010,03,19,05,14,2.30
2010,03,19,05,15,2.20
2010,03,19,05,16,2.20
2010,03,19,05,17,2.10
2010,03,19,05,18,2.10
2010,03,19,05,19,2.10
2010,03,19,05,20,2.00
2010,03,19,05,21,2.00
2010,03,19,05,22,2.00
2010,03,19,05,23,1.90
2010,03,19,05,24,1.90
2010,03,19,05,25,1.90
2010,03,19,05,26,1.80
2010,03,19,05,27,1.80
2010,03,19,05,28,1.80
2010,03,19,05,29,1.80
2010,03,19,05,30,1.80
2010,03,19,05,31,1.80
2010,03,19,05,32,1.80
2010,03,19,05,33,1.80
2010,03,19,05,34,1.80
2010,03,19,05,35,1.90
2010,03,19,05,36,1.90
2010,03,19,05,37,1.90
2010,03,19,05,38,1.90
2010,03,19,05,39,1.80
2010,03,19,05,40,1.70
2010,03,19,05,41,1.60
2010,03,19,05,42,1.60
2010,03,19,05,43,1.60
2010,03,19,05,44,1.60
2010,03,19,05,45,1.60
2010,03,19,05,46,1.60
2010,03,19,05,47,1.50
2010,03,19,05,48,1.50
2010,03,19,05,49,1.50
2010,03,19,05,50,1.40
2010,03,19,05,51,1.40
2010,03,19,05,52,1.40
2010,03,19,05,53,1.40
2010,03,19,05,54,1.30
2010,03,19,05,55,1.30
2010,03,19,05,56,1.30
2010,03,19,05,57,1.20
2010,03,19,05,58,1.20
2010,03,19,05,59,1.10
2010,03,19,06,00,1.10
2010,03,19,06,01,1.00
2010,03,19,06,02,1.00
2010,03,19,06,03,0.90
2010,03,19,06,04,0.90
2010,03,19,06,05,0.80
2010,03,19,06,06,0.80
2010,03,19,06,07,0.80
2010,03,19,06,08,0.80
2010,03,19,06,09,0.80
2010,03,19,06,10,0.80
2010,03,19,06,11,0.80
2010,03,19,06,12,0.80
2010,03,19,06,13,0.80
2010,03,19,06,14,0.80
2010,03,19,06,15,0.80
2010,03,19,06,16,0.70
2010,03,19,06,17,0.70
2010,03,19,06,18,0.70
2010,03,19,06,19,0.70
2010,03,19,06,20,0.60
2010,03,19,06,21,0.60
2010,03,19,06,22,0.60
2010,03,19,06,23,0.60
2010,03,19,06,24,0.60
2010,03,19,06,25,0.60
2010,03,19,06,26,0.60
2010,03,19,06,27,0.60
2010,03,19,06,28,0.60
2010,03,19,06,29,0.60
2010,03,19,06,30,0.50
2010,03,19,06,31,0.50
2010,03,19,06,32,0.50
2010,03,19,06,33,0.50
2010,03,19,06,34,0.50
2010,03,19,06,35,0.50
2010,03,19,06,36,0.50
2010,03,19,06,37,0.50
2010,03,19,06,38,0.50
2010,03,19,06,39,0.40
2010,03,19,06,40,0.50
2010,03,19,06,41,0.50
2010,03,19,06,42,0.40
2010,03,19,06,43,0.40
2010,03,19,06,44,0.40
2010,03,19,06,45,0.40
2010,03,19,06,46,0.40
2010,03,19,06,47,0.40
2010,03,19,06,48,0.40
2010,03,19,06,49,0.40
2010,03,19,06,50,0.30
2010,03,19,06,51,0.30
2010,03,19,06,52,0.30
2010,03,19,06,53,0.30
2010,03,19,06,54,0.40
2010,03,19,06,55,0.40
2010,03,19,06,56,0.40
2010,03,19,06,57,0.40
2010,03,19,06,58,0.50
2010,03,19,06,59,0.50
2010,03,19,07,00,0.60
2010,03,19,07,01,0.60
2010,03,19,07,02,0.70
2010,03,19,07,03,0.70
2010,03,19,07,04,0.70
2010,03,19,07,05,0.70
2010,03,19,07,06,0.70
2010,03,19,07,07,0.70
2010,03,19,07,08,0.70
2010,03,19,07,09,0.70
2010,03,19,07,10,0.70
2010,03,19,07,11,0.70
2010,03,19,07,12,0.80
2010,03,19,07,13,0.90
2010,03,19,07,14,0.90
2010,03,19,07,15,1.00
2010,03,19,07,16,1.00
2010,03,19,07,17,1.10
2010,03,19,07,18,1.20
2010,03,19,07,19,1.30
2010,03,19,07,20,1.30
2010,03,19,07,21,1.40
2010,03,19,07,22,1.50
2010,03,19,07,23,1.60
2010,03,19,07,24,1.80
2010,03,19,07,25,1.90
2010,03,19,07,26,2.00
2010,03,19,07,27,2.10
2010,03,19,07,28,2.20
2010,03,19,07,29,2.30
2010,03,19,07,30,2.40
2010,03,19,07,31,2.40
2010,03,19,07,32,2.50
2010,03,19,07,33,2.50
2010,03,19,07,34,2.50
2010,03,19,07,35,2.60
2010,03,19,07,36,2.50
2010,03,19,07,37,2.50
2010,03,19,07,38,2.50
2010,03,19,07,39,2.50
2010,03,19,07,40,2.50
2010,03,19,07,41,2.40
2010,03,19,07,42,2.30
2010,03,19,07,43,2.20
2010,03,19,07,44,2.10
2010,03,19,07,45,2.10
2010,03,19,07,46,2.00
2010,03,19,07,47,2.00
2010,03,19,07,48,1.90
2010,03,19,07,49,1.80
2010,03,19,07,50,1.80
2010,03,19,07,51,1.80
2010,03,19,07,52,1.80
2010,03,19,07,53,1.80
2010,03,19,07,54,1.80
2010,03,19,07,55,1.80
2010,03,19,07,56,1.80
2010,03,19,07,57,1.90
2010,03,19,07,58,2.00
2010,03,19,07,59,2.10
2010,03,19,08,00,2.10
2010,03,19,08,01,2.30
2010,03,19,08,02,2.60
2010,03,19,08,03,2.80
2010,03,19,08,04,3.00
2010,03,19,08,05,3.20
2010,03,19,08,06,3.30
2010,03,19,08,07,3.50
2010,03,19,08,08,3.60
2010,03,19,08,09,3.70
2010,03,19,08,10,3.80
2010,03,19,08,11,4.00
2010,03,19,08,12,4.00
2010,03,19,08,13,4.20
2010,03,19,08,14,4.20
2010,03,19,08,15,4.40
2010,03,19,08,16,4.50
2010,03,19,08,17,4.60
2010,03,19,08,18,4.70
2010,03,19,08,19,4.80
2010,03,19,08,20,4.90
2010,03,19,08,21,5.10
2010,03,19,08,22,5.10
2010,03,19,08,23,5.10
2010,03,19,08,24,5.10
2010,03,19,08,25,5.10
2010,03,19,08,26,5.20
2010,03,19,08,27,5.20
2010,03,19,08,28,5.20
2010,03,19,08,29,5.20
2010,03,19,08,30,5.30
2010,03,19,08,31,5.30
2010,03,19,08,32,5.40
2010,03,19,08,33,5.60
2010,03,19,08,34,5.70
2010,03,19,08,35,5.70
2010,03,19,08,36,5.80
2010,03,19,08,37,5.80
2010,03,19,08,38,5.90
2010,03,19,08,39,5.90
2010,03,19,08,40,5.90
2010,03,19,08,41,6.00
2010,03,19,08,42,6.00
2010,03,19,08,43,6.00
2010,03,19,08,44,6.00
2010,03,19,08,45,6.10
2010,03,19,08,46,6.10
2010,03,19,08,47,6.20
2010,03,19,08,48,6.20
2010,03,19,08,49,6.20
2010,03,19,08,50,6.20
2010,03,19,08,51,6.10
2010,03,19,08,52,6.10
2010,03,19,08,53,6.10
2010,03,19,08,54,6.10
2010,03,19,08,55,6.20
2010,03,19,08,56,6.20
2010,03,19,08,57,6.20
2010,03,19,08,58,6.20
2010,03,19,08,59,6.30
2010,03,19,09,00,6.40
2010,03,19,09,01,6.40
2010,03,19,09,02,6.50
2010,03,19,09,03,6.60
2010,03,19,09,04,6.60
2010,03,19,09,05,6.70
2010,03,19,09,06,6.70
2010,03,19,09,07,6.80
2010,03,19,09,08,6.80
2010,03,19,09,09,6.90
2010,03,19,09,10,7.00
2010,03,19,09,11,7.00
2010,03,19,09,12,7.10
2010,03,19,09,13,7.20
2010,03,19,09,14,7.30
2010,03,19,09,15,7.30
2010,03,19,09,16,7.40
2010,03,19,09,17,7.50
2010,03,19,09,18,7.70
2010,03,19,09,19,7.80
2010,03,19,09,20,7.80
2010,03,19,09,21,7.90
2010,03,19,09,22,7.90
2010,03,19,09,23,7.90
2010,03,19,09,24,8.00
2010,03,19,09,25,8.00
2010,03,19,09,26,8.00
2010,03,19,09,27,8.10
2010,03,19,09,28,8.10
2010,03,19,09,29,8.20
2010,03,19,09,30,8.20
2010,03,19,09,31,8.30
2010,03,19,09,32,8.30
2010,03,19,09,33,8.40
2010,03,19,09,34,8.40
2010,03,19,09,35,8.50
2010,03,19,09,36,8.50
2010,03,19,09,37,8.50
2010,03,19,09,38,8.60
2010,03,19,09,39,8.60
2010,03,19,09,40,8.60
2010,03,19,09,41,8.70
2010,03,19,09,42,8.70
2010,03,19,09,43,8.70
2010,03,19,09,44,8.80
2010,03,19,09,45,8.80
2010,03,19,09,46,8.90
2010,03,19,09,47,9.00
2010,03,19,09,48,9.00
2010,03,19,09,49,9.10
2010,03,19,09,50,9.10
2010,03,19,09,51,9.10
2010,03,19,09,52,9.20
2010,03,19,09,53,9.20
2010,03,19,09,54,9.20
2010,03,19,09,55,9.20
2010,03,19,09,56,9.30
2010,03,19,09,57,9.40
2010,03,19,09,58,9.40
2010,03,19,09,59,9.50
2010,03,19,10,00,9.50
2010,03,19,10,01,9.60
2010,03,19,10,02,9.70
2010,03,19,10,03,9.70
2010,03,19,10,04,9.80
2010,03,19,10,05,9.90
2010,03,19,10,06,9.90
2010,03,19,10,07,10.00
2010,03,19,10,08,10.10
2010,03,19,10,09,10.10
2010,03,19,10,10,10.10
2010,03,19,10,11,10.10
2010,03,19,10,12,10.20
2010,03,19,10,13,10.20
2010,03,19,10,14,10.30
2010,03,19,10,15,10.40
2010,03,19,10,16,10.40
2010,03,19,10,17,10.40
2010,03,19,10,18,10.60
2010,03,19,10,19,10.60
2010,03,19,10,20,10.60
2010,03,19,10,21,10.70
2010,03,19,10,22,10.70
2010,03,19,10,23,10.80
2010,03,19,10,24,10.80
2010,03,19,10,25,10.80
2010,03,19,10,26,10.80
2010,03,19,10,27,10.90
2010,03,19,10,28,10.90
2010,03,19,10,29,10.90
2010,03,19,10,30,11.00
2010,03,19,10,31,11.10
2010,03,19,10,32,11.10
2010,03,19,10,33,11.10
2010,03,19,10,34,11.10
2010,03,19,10,35,11.10
2010,03,19,10,36,11.10
2010,03,19,10,37,11.10
2010,03,19,10,38,11.10
2010,03,19,10,39,11.10
2010,03,19,10,40,11.10
2010,03,19,10,41,11.10
2010,03,19,10,42,11.10
2010,03,19,10,43,11.10
2010,03,19,10,44,11.10
2010,03,19,10,45,11.10
2010,03,19,10,46,11.10
2010,03,19,10,47,11.10
2010,03,19,10,48,11.10
2010,03,19,10,49,11.10
2010,03,19,10,50,11.10
2010,03,19,10,51,11.10
2010,03,19,10,52,11.10
2010,03,19,10,53,11.20
2010,03,19,10,54,11.30
2010,03,19,10,55,11.30
2010,03,19,10,56,11.40
2010,03,19,10,57,11.60
2010,03,19,10,58,11.60
2010,03,19,10,59,11.60
2010,03,19,11,00,11.60
2010,03,19,11,01,11.60
2010,03,19,11,02,11.50
2010,03,19,11,03,11.40
2010,03,19,11,04,11.60
2010,03,19,11,05,11.60
2010,03,19,11,06,11.60
2010,03,19,11,07,11.70
2010,03,19,11,08,11.70
2010,03,19,11,09,11.60
2010,03,19,11,10,11.50
2010,03,19,11,11,11.40
2010,03,19,11,12,11.40
2010,03,19,11,13,11.40
2010,03,19,11,14,11.40
2010,03,19,11,15,11.40
2010,03,19,11,16,11.50
2010,03,19,11,17,11.60
2010,03,19,11,18,11.70
2010,03,19,11,19,11.70
2010,03,19,11,20,11.70
2010,03,19,11,21,11.80
2010,03,19,11,22,11.80
2010,03,19,11,23,11.80
2010,03,19,11,24,11.80
2010,03,19,11,25,11.80
2010,03,19,11,26,11.80
2010,03,19,11,27,11.70
2010,03,19,11,28,11.70
2010,03,19,11,29,11.70
2010,03,19,11,30,11.60
2010,03,19,11,31,11.60
2010,03,19,11,32,11.60
2010,03,19,11,33,11.60
2010,03,19,11,34,11.60
2010,03,19,11,35,11.60
2010,03,19,11,36,11.60
2010,03,19,11,37,11.60
2010,03,19,11,38,11.60
2010,03,19,11,39,11.60
2010,03,19,11,40,11.60
2010,03,19,11,41,11.60
2010,03,19,11,42,11.70
2010,03,19,11,43,11.70
2010,03,19,11,44,11.70
2010,03,19,11,45,11.80
2010,03,19,11,46,11.80
2010,03,19,11,47,11.80
2010,03,19,11,48,11.80
2010,03,19,11,49,11.80
2010,03,19,11,50,11.80
2010,03,19,11,51,11.80
2010,03,19,11,52,11.80
2010,03,19,11,53,11.80
2010,03,19,11,54,11.80
2010,03,19,11,55,11.80
2010,03,19,11,56,11.80
2010,03,19,11,57,11.80
2010,03,19,11,58,11.80
2010,03,19,11,59,11.80
2010,03,19,12,00,11.90
2010,03,19,12,01,11.90
2010,03,19,12,02,11.90
2010,03,19,12,03,11.90
2010,03,19,12,04,11.80
2010,03,19,12,05,11.80
2010,03,19,12,06,11.80
2010,03,19,12,07,11.80
2010,03,19,12,08,12.00
2010,03,19,12,09,12.00
2010,03,19,12,10,12.00
2010,03,19,12,11,11.90
2010,03,19,12,12,11.90
2010,03,19,12,13,11.90
2010,03,19,12,14,12.00
2010,03,19,12,15,12.00
2010,03,19,12,16,12.10
2010,03,19,12,17,12.20
2010,03,19,12,18,12.20
2010,03,19,12,19,12.30
2010,03,19,12,20,12.30
2010,03,19,12,21,12.30
2010,03,19,12,22,12.30
2010,03,19,12,23,12.30
2010,03,19,12,24,12.30
2010,03,19,12,25,12.20
2010,03,19,12,26,12.20
2010,03,19,12,27,12.20
2010,03,19,12,28,12.30
2010,03,19,12,29,12.30
2010,03,19,12,30,12.30
2010,03,19,12,31,12.30
2010,03,19,12,32,12.30
2010,03,19,12,33,12.30
2010,03,19,12,34,12.50
2010,03,19,12,35,12.50
2010,03,19,12,36,12.60
2010,03,19,12,37,12.70
2010,03,19,12,38,12.70
2010,03,19,12,39,12.60
2010,03,19,12,40,12.60
2010,03,19,12,41,12.60
2010,03,19,12,42,12.40
2010,03,19,12,43,12.30
2010,03,19,12,44,12.30
2010,03,19,12,45,12.30
2010,03,19,12,46,12.30
2010,03,19,12,47,12.30
2010,03,19,12,48,12.30
2010,03,19,12,49,12.30
2010,03,19,12,50,12.30
2010,03,19,12,51,12.30
2010,03,19,12,52,12.30
2010,03,19,12,53,12.30
2010,03,19,12,54,12.30
2010,03,19,12,55,12.30
2010,03,19,12,56,12.30
2010,03,19,12,57,12.20
2010,03,19,12,58,12.20
2010,03,19,12,59,12.20
2010,03,19,13,00,12.20
2010,03,19,13,01,12.20
2010,03,19,13,02,12.20
2010,03,19,13,03,12.20
2010,03,19,13,04,12.30
2010,03,19,13,05,12.30
2010,03,19,13,06,12.30
2010,03,19,13,07,12.30
2010,03,19,13,08,12.30
2010,03,19,13,09,12.40
2010,03,19,13,10,12.40
2010,03,19,13,11,12.40
2010,03,19,13,12,12.30
2010,03,19,13,13,12.30
2010,03,19,13,14,12.20
2010,03,19,13,15,12.30
2010,03,19,13,16,12.30
2010,03,19,13,17,12.30
2010,03,19,13,18,12.30
2010,03,19,13,19,12.20
2010,03,19,13,20,12.20
2010,03,19,13,21,12.10
2010,03,19,13,22,12.00
2010,03,19,13,23,12.00
2010,03,19,13,24,11.90
2010,03,19,13,25,11.90
2010,03,19,13,26,11.90
2010,03,19,13,27,11.90
2010,03,19,13,28,12.00
2010,03,19,13,29,12.00
2010,03,19,13,30,12.10
2010,03,19,13,31,12.20
2010,03,19,13,32,12.30
2010,03,19,13,33,12.30
2010,03,19,13,34,12.40
2010,03,19,13,35,12.50
2010,03,19,13,36,12.50
2010,03,19,13,37,12.50
2010,03,19,13,38,12.60
2010,03,19,13,39,12.50
2010,03,19,13,40,12.60
2010,03,19,13,41,12.60
2010,03,19,13,42,12.70
2010,03,19,13,43,12.80
2010,03,19,13,44,12.80
2010,03,19,13,45,12.90
2010,03,19,13,46,13.00
2010,03,19,13,47,13.10
2010,03,19,13,48,13.20
2010,03,19,13,49,13.30
2010,03,19,13,50,13.30
2010,03,19,13,51,13.30
2010,03,19,13,52,13.20
2010,03,19,13,53,13.20
2010,03,19,13,54,13.20
2010,03,19,13,55,13.20
2010,03,19,13,56,13.30
2010,03,19,13,57,13.30
2010,03,19,13,58,13.30
2010,03,19,13,59,13.20
2010,03,19,14,00,13.20
2010,03,19,14,01,13.20
2010,03,19,14,02,13.20
2010,03,19,14,03,13.10
2010,03,19,14,04,13.10
2010,03,19,14,05,13.10
2010,03,19,14,06,13.20
2010,03,19,14,07,13.20
2010,03,19,14,08,13.20
2010,03,19,14,09,13.20
2010,03,19,14,10,13.30
2010,03,19,14,11,13.40
2010,03,19,14,12,13.40
2010,03,19,14,13,13.30
2010,03,19,14,14,13.30
2010,03,19,14,15,13.40
2010,03,19,14,16,13.50
2010,03,19,14,17,13.50
2010,03,19,14,18,13.50
2010,03,19,14,19,13.40
2010,03,19,14,20,13.30
2010,03,19,14,21,13.30
2010,03,19,14,22,13.30
2010,03,19,14,23,13.40
2010,03,19,14,24,13.40
2010,03,19,14,25,13.50
2010,03,19,14,26,13.50
2010,03,19,14,27,13.50
2010,03,19,14,28,13.50
2010,03,19,14,29,13.50
2010,03,19,14,30,13.60
2010,03,19,14,31,13.60
2010,03,19,14,32,13.60
2010,03,19,14,33,13.60
2010,03,19,14,34,13.60
2010,03,19,14,35,13.60
2010,03,19,14,36,13.60
2010,03,19,14,37,13.50
2010,03,19,14,38,13.50
2010,03,19,14,39,13.50
2010,03,19,14,40,13.60
2010,03,19,14,41,13.60
2010,03,19,14,42,13.70
2010,03,19,14,43,13.70
2010,03,19,14,44,13.70
2010,03,19,14,45,13.70
2010,03,19,14,46,13.70
2010,03,19,14,47,13.60
2010,03,19,14,48,13.60
2010,03,19,14,49,13.50
2010,03,19,14,50,13.60
2010,03,19,14,51,13.50
2010,03,19,14,52,13.40
2010,03,19,14,53,13.50
2010,03,19,14,54,13.50
2010,03,19,14,55,13.60
2010,03,19,14,56,13.70
2010,03,19,14,57,13.70
2010,03,19,14,58,13.70
2010,03,19,14,59,13.70
2010,03,19,15,00,13.70
2010,03,19,15,01,13.70
2010,03,19,15,02,13.70
2010,03,19,15,03,13.80
2010,03,19,15,04,13.80
2010,03,19,15,05,13.80
2010,03,19,15,06,13.70
2010,03,19,15,07,13.70
2010,03,19,15,08,13.70
2010,03,19,15,09,13.70
2010,03,19,15,10,13.60
2010,03,19,15,11,13.70
2010,03,19,15,12,13.70
2010,03,19,15,13,13.70
2010,03,19,15,14,13.80
2010,03,19,15,15,13.80
2010,03,19,15,16,13.90
2010,03,19,15,17,13.90
2010,03,19,15,18,13.90
2010,03,19,15,19,13.90
2010,03,19,15,20,14.00
2010,03,19,15,21,14.10
2010,03,19,15,22,14.10
2010,03,19,15,23,14.10
2010,03,19,15,24,14.10
2010,03,19,15,25,14.10
2010,03,19,15,26,14.20
2010,03,19,15,27,14.00
2010,03,19,15,28,14.00
2010,03,19,15,29,13.90
2010,03,19,15,30,13.90
2010,03,19,15,31,13.90
2010,03,19,15,32,13.90
2010,03,19,15,33,13.90
2010,03,19,15,34,14.00
2010,03,19,15,35,14.10
2010,03,19,15,36,14.10
2010,03,19,15,37,14.10
2010,03,19,15,38,14.10
2010,03,19,15,39,14.10
2010,03,19,15,40,14.00
2010,03,19,15,41,14.00
2010,03,19,15,42,14.00
2010,03,19,15,43,14.20
2010,03,19,15,44,14.20
2010,03,19,15,45,14.20
2010,03,19,15,46,14.20
2010,03,19,15,47,14.20
2010,03,19,15,48,14.20
2010,03,19,15,49,14.20
2010,03,19,15,50,14.20
2010,03,19,15,51,14.20
2010,03,19,15,52,14.20
2010,03,19,15,53,14.20
2010,03,19,15,54,14.20
2010,03,19,15,55,14.20
2010,03,19,15,56,14.20
2010,03,19,15,57,14.20
2010,03,19,15,58,14.20
2010,03,19,15,59,14.20
2010,03,19,16,00,14.20
2010,03,19,16,01,14.20
2010,03,19,16,02,14.20
2010,03,19,16,03,14.20
2010,03,19,16,04,14.20
2010,03,19,16,05,14.20
2010,03,19,16,06,14.20
2010,03,19,16,07,14.20
2010,03,19,16,08,14.20
2010,03,19,16,09,14.20
2010,03,19,16,10,14.20
2010,03,19,16,11,14.20
2010,03,19,16,12,14.20
2010,03,19,16,13,14.10
2010,03,19,16,14,14.00
2010,03,19,16,15,13.90
2010,03,19,16,16,13.90
2010,03,19,16,17,13.90
2010,03,19,16,18,13.90
2010,03,19,16,19,13.90
2010,03,19,16,20,14.00
2010,03,19,16,21,14.00
2010,03,19,16,22,14.10
2010,03,19,16,23,14.20
2010,03,19,16,24,14.20
2010,03,19,16,25,14.20
2010,03,19,16,26,14.20
2010,03,19,16,27,14.20
2010,03,19,16,28,14.20
2010,03,19,16,29,14.10
2010,03,19,16,30,14.10
2010,03,19,16,31,14.00
2010,03,19,16,32,14.00
2010,03,19,16,33,14.00
2010,03,19,16,34,14.00
2010,03,19,16,35,14.00
2010,03,19,16,36,14.10
2010,03,19,16,37,14.10
2010,03,19,16,38,14.10
2010,03,19,16,39,14.10
2010,03,19,16,40,14.10
2010,03,19,16,41,14.10
2010,03,19,16,42,14.10
2010,03,19,16,43,14.00
2010,03,19,16,44,14.00
2010,03,19,16,45,14.00
2010,03,19,16,46,13.90
2010,03,19,16,47,13.90
2010,03,19,16,48,13.90
2010,03,19,16,49,13.80
2010,03,19,16,50,13.80
2010,03,19,16,51,13.80
2010,03,19,16,52,13.70
2010,03,19,16,53,13.70
2010,03,19,16,54,13.70
2010,03,19,16,55,13.80
2010,03,19,16,56,13.70
2010,03,19,16,57,13.70
2010,03,19,16,58,13.70
2010,03,19,16,59,13.70
2010,03,19,17,00,13.70
2010,03,19,17,01,13.70
2010,03,19,17,02,13.70
2010,03,19,17,03,13.80
2010,03,19,17,04,13.80
2010,03,19,17,05,13.90
2010,03,19,17,06,13.90
2010,03,19,17,07,13.90
2010,03,19,17,08,13.90
2010,03,19,17,09,13.90
2010,03,19,17,10,13.90
2010,03,19,17,11,13.80
2010,03,19,17,12,13.80
2010,03,19,17,13,13.80
2010,03,19,17,14,13.70
2010,03,19,17,15,13.70
2010,03,19,17,16,13.70
2010,03,19,17,17,13.70
2010,03,19,17,18,13.80
2010,03,19,17,19,13.80
2010,03,19,17,20,13.80
2010,03,19,17,21,13.80
2010,03,19,17,22,13.80
2010,03,19,17,23,13.90
2010,03,19,17,24,13.80
2010,03,19,17,25,13.90
2010,03,19,17,26,13.90
2010,03,19,17,27,13.80
2010,03,19,17,28,13.80
2010,03,19,17,29,13.90
2010,03,19,17,30,13.90
2010,03,19,17,31,13.90
2010,03,19,17,32,14.00
2010,03,19,17,33,14.00
2010,03,19,17,34,14.00
2010,03,19,17,35,14.00
2010,03,19,17,36,13.90
2010,03,19,17,37,13.90
2010,03,19,17,38,13.90
2010,03,19,17,39,13.90
2010,03,19,17,40,13.80
2010,03,19,17,41,13.80
2010,03,19,17,42,13.70
2010,03,19,17,43,13.70
2010,03,19,17,44,13.70
2010,03,19,17,45,13.70